Regional Weather Roundup
Issued by NWS

Home | Current Version | Previous Version | Graphics & Text | Print | Product List | Glossary On
Versions: 1 2 3 4 5 6 7 8 9 10 11 12 13 14 15 16 17 18 19 20 21 22 23 24 25 26 27 28 29 30 31 32 33 34 35 36 37 38 39 40 41 42 43 44 45 46 47 48 49 50
000
ASUS43 KLSX 292107
RWRMO

WEATHER SUMMARY FOR MISSOURI
NATIONAL WEATHER SERVICE SPRINGFIELD MO
400 PM CDT WED OCT 29 2014

NOTE: "FAIR" INDICATES FEW OR NO CLOUDS BELOW 12,000 FEET WITH NO
       SIGNIFICANT WEATHER AND/OR OBSTRUCTIONS TO VISIBILITY.
       CURRENT SKY AND/OR WEATHER CONDITIONS ARE NOT AVAILABLE FOR
       CHILLICOTHE AND FARMINGTON.

MOZ001>031-035>038-043-044-053-054-292200-
...NORTHERN AND WESTERN MISSOURI...

CITY           SKY/WX    TMP DP  RH WIND       PRES   REMARKS
KANSAS CTY INT SUNNY     59  36  42 CALM      30.16F
KANSAS C DTWN  SUNNY     62  33  33 VRB3      30.16F
LEE`S SUMMIT   SUNNY     61  30  31 CALM      30.17F
ST JOSEPH      SUNNY     59  28  30 CALM      30.16F
CHILLICOTHE      N/A     58  33  39 VRB3      30.18F
KIRKSVILLE     SUNNY     55  35  47 W8        30.16F

$$
MOZ066>068-077>081-088>096-101>105-292200-
...SOUTHWEST MISSOURI...

CITY           SKY/WX    TMP DP  RH WIND       PRES   REMARKS
SPRINGFIELD    SUNNY     63  33  32 NW8       30.17F
JOPLIN         SUNNY     65  36  34 CALM      30.18F

$$
MOZ032>034-039>042-045>050-055>058-069>072-292200-
...CENTRAL MISSOURI...

CITY           SKY/WX    TMP DP  RH WIND       PRES   REMARKS
COLUMBIA       SUNNY     59  34  39 NW9       30.17S
JEFFERSON CITY SUNNY     60  30  32 NW10      30.17F
ROLLA          SUNNY     58  29  33 NW8       30.15F
SEDALIA        SUNNY     60  31  33 NW8       30.18F
WHITEMAN AFB   SUNNY     60  31  34 NW9       30.16F
OSAGE BEACH    SUNNY     61  30  31 W6        30.17S

$$
MOZ051-052-059>065-292200-
...EAST CENTRAL MISSOURI...

CITY           SKY/WX    TMP DP  RH WIND       PRES   REMARKS
ST LOUIS INTL  MOSUNNY   59  35  40 NW13      30.15F
SPIRIT OF STL  SUNNY     58  35  42 NW16      30.15S
ST CHARLES     SUNNY     58  35  42 W13       30.15S

$$
MOZ072>076-082>087-097>100-106>115-292200-
...SOUTH CENTRAL AND SOUTHEAST MISSOURI...

CITY           SKY/WX    TMP DP  RH WIND       PRES   REMARKS
CAPE GIRARDEAU SUNNY     64  33  31 NW12      30.13F
FARMINGTON     SUNNY     61  28  29 W12       30.16S
POPLAR BLUFF   SUNNY     67  25  20 NW15      30.12F
WEST PLAINS    SUNNY     65  28  24 NW9       30.16F

$$



USA.gov is the U.S. government's official web portal to all federal, state and local government web resources and services.